date,time,DOY,Ta_1_1_1,RH_1_1_1,LWin_1_1_1,LWout_1_1_1,SWin_1_1_1,SWout_1_1_1,PPFD_1_1_1,SWC_1_1_1,Ts_1_1_1
[yyyy-mm-dd],[HH:MM],[ddd.ddd],[K],[%],[W+1m-2],[W+1m-2],[W+1m-2],[W+1m-2],[µmol+1m-2s-1],[m+3m-3],[K]
2013-11-30,00:30,334.020,267.26000000000005,77.602333333333348,-5.2973333333333334,-7.2420000000000018,-0.29566666666666669,-0.38400000000000006,-2.53333333333333396E-002,0.32000000000000012,274.41966666666667
2013-11-30,01:00,334.041,267.43799999999993,76.622999999999990,-5.4470000000000001,-7.8316666666666652,-0.30366666666666664,-0.45533333333333342,-1.46666666666666681E-002,0.32000000000000012,274.42233333333331
2013-11-30,01:30,334.062,267.49233333333336,76.217666666666659,-5.3713333333333342,-7.6446666666666658,-0.34133333333333321,-0.39066666666666655,-1.90000000000000030E-002,0.32000000000000012,274.42533333333341
2013-11-30,02:00,334.083,267.50200000000001,76.597999999999999,-5.4946666666666664,-7.6643333333333317,-0.36566666666666664,-0.38166666666666671,-2.10000000000000048E-002,0.32000000000000012,274.42800000000005
2013-11-30,02:30,334.104,267.58433333333340,76.759333333333331,-5.6533333333333333,-7.8706666666666667,-0.37866666666666671,-0.40133333333333338,-2.23333333333333370E-002,0.32000000000000012,274.43399999999997
2013-11-30,03:00,334.124,267.69533333333334,76.852333333333348,-5.7860000000000005,-7.4933333333333332,-0.40966666666666668,-0.39733333333333326,-1.46666666666666699E-002,0.32000000000000012,274.43033333333335
2013-11-30,03:30,334.145,267.69499999999999,77.699666666666644,-5.8606666666666651,-6.9890000000000017,-0.47600000000000003,-0.40500000000000003,-1.80000000000000021E-002,0.32000000000000012,274.43366666666662
2013-11-30,04:00,334.166,267.77433333333335,77.664666666666648,-5.6586666666666661,-7.0759999999999987,-0.41100000000000014,-0.36066666666666664,-2.20000000000000057E-002,0.32000000000000012,274.43766666666664
2013-11-30,04:30,334.187,267.85666666666668,77.934999999999988,-5.7976666666666654,-7.2703333333333342,-0.42999999999999999,-0.39299999999999996,-1.66666666666666630E-002,0.32000000000000012,274.44166666666666
2013-11-30,05:00,334.208,267.93933333333331,78.175666666666658,-5.8776666666666655,-7.3819999999999997,-0.43866666666666654,-0.40066666666666662,-2.83333333333333423E-002,0.32000000000000012,274.44033333333329
2013-11-30,05:30,334.229,268.00233333333341,78.743999999999986,-6.2950000000000008,-8.1509999999999998,-0.53066666666666662,-0.48433333333333339,-2.73333333333333414E-002,0.32000000000000012,274.44733333333329
2013-11-30,06:00,334.249,268.05900000000003,79.185333333333332,-6.3546666666666658,-8.9735294117647069,-0.51066666666666671,-0.55133333333333334,-2.16666666666666674E-002,0.32000000000000012,274.45133333333331
2013-11-30,06:30,334.270,268.11733333333331,79.840000000000003,-6.8213333333333335,-9999.0,-0.44233333333333336,-0.95566666666666655,-2.50000000000000083E-002,0.32000000000000012,274.45733333333339
2013-11-30,07:00,334.291,268.20300000000009,79.956000000000003,-7.1810000000000009,-9999.0,-0.35166666666666668,-1.1053333333333331,7.29999999999999954E-002,0.32000000000000012,274.46133333333341
2013-11-30,07:30,334.312,268.24100000000010,80.414999999999978,-7.7449999999999983,-9999.0,4.99999999999994546E-003,0.64033333333333331,4.8633333333333333,0.32000000000000012,274.45866666666666
2013-11-30,08:00,334.333,268.31333333333339,80.734666666666669,-7.5703333333333358,-9999.0,3.5113333333333339,16.755666666666666,33.769333333333329,0.32000000000000012,274.46433333333340
2013-11-30,08:30,334.354,268.52133333333336,80.580999999999975,-7.0983333333333336,-9999.0,6.1013333333333328,28.934000000000005,60.428333333333335,0.32000000000000012,274.46366666666671
2013-11-30,09:00,334.374,268.82200000000000,80.092000000000027,-7.0396666666666698,-9999.0,7.6883333333333352,36.929000000000002,79.776666666666657,0.32000000000000012,274.47066666666683
2013-11-30,09:30,334.395,269.21800000000002,79.169333333333327,-7.5259999999999998,-9999.0,12.404999999999999,58.632666666666672,126.14433333333334,0.32000000000000012,274.47233333333332
2013-11-30,10:00,334.416,269.64333333333337,78.025999999999996,-7.8566666666666665,-9999.0,17.937999999999999,84.532333333333312,182.07299999999995,0.32000000000000012,274.47333333333336
2013-11-30,10:30,334.437,270.08966666666669,76.627666666666670,-7.8086666666666673,-9999.0,30.576999999999995,145.59600000000000,303.58166666666671,0.32000000000000012,274.48033333333319
2013-11-30,11:00,334.458,270.58600000000001,74.928333333333327,-8.6366666666666667,-9999.0,34.248666666666665,170.80600000000001,345.72966666666673,0.32000000000000012,274.48466666666656
2013-11-30,11:30,334.479,270.80733333333330,74.456000000000003,-7.5956666666666690,-9999.0,37.436333333333330,179.51366666666672,369.87566666666663,0.32000000000000012,274.49399999999997
2013-11-30,12:00,334.499,271.02800000000002,74.327333333333343,-7.4903333333333357,-9999.0,38.157666666666657,183.56966666666659,376.21733333333327,0.32000000000000012,274.49833333333328
2013-11-30,12:30,334.520,271.26833333333332,73.859333333333339,-8.0203333333333351,-9999.0,38.541333333333341,187.28366666666668,383.47533333333337,0.32000000000000012,274.50233333333341
2013-11-30,13:00,334.541,271.61633333333327,72.692666666666639,-9.5364705882352947,-9999.0,40.079333333333331,200.89800000000008,412.86366666666657,0.32000000000000012,274.50933333333342
2013-11-30,13:30,334.562,271.68333333333334,72.711666666666673,-9.8200000000000003,-9999.0,27.399999999999995,139.09866666666665,292.12333333333328,0.32000000000000012,274.51433333333341
2013-11-30,14:00,334.583,271.51800000000014,73.540999999999997,-8.9742857142857133,-9999.0,23.114999999999998,118.46100000000000,245.66300000000001,0.32000000000000012,274.51300000000015
2013-11-30,14:30,334.604,271.83133333333336,72.647666666666694,-9.8499999999999996,-9999.0,25.511666666666670,133.12366666666668,270.23200000000003,0.32000000000000012,274.51733333333351
2013-11-30,15:00,334.624,271.81800000000004,73.284000000000020,-9.9800000000000004,-9999.0,13.150999999999998,71.284999999999997,151.03200000000001,0.32000000000000012,274.52366666666677
2013-11-30,15:30,334.645,271.68333333333334,74.416333333333327,-9.6663157894736838,-9999.0,5.7503333333333337,32.083000000000006,70.090999999999994,0.32000000000000012,274.52533333333338
2013-11-30,16:00,334.666,271.42766666666665,75.561999999999983,-8.9933333333333323,-9999.0,2.3429999999999991,14.617333333333336,34.048000000000002,0.32000000000000012,274.52766666666673
2013-11-30,16:30,334.687,271.28500000000008,76.137666666666675,-8.6683333333333330,-9999.0,-0.38899999999999996,0.77800000000000002,5.6183333333333341,0.32000000000000012,274.52866666666671
2013-11-30,17:00,334.708,271.05866666666668,76.888000000000005,-7.9966666666666688,-9999.0,-0.70033333333333325,-1.0870000000000002,8.40000000000000052E-002,0.32000000000000012,274.53199999999998
2013-11-30,17:30,334.729,270.83866666666671,78.161333333333317,-8.1469999999999985,-9999.0,-0.71299999999999975,-1.1646666666666665,-6.10000000000000264E-002,0.32000000000000012,274.53433333333334
2013-11-30,18:00,334.749,270.73766666666660,78.946333333333342,-9.1730000000000000,-9999.0,-0.91833333333333356,-1.3253333333333333,-5.50000000000000280E-002,0.32000000000000012,274.53533333333331
2013-11-30,18:30,334.770,270.63033333333334,79.564666666666668,-9.0063333333333340,-9999.0,-0.92099999999999982,-1.3229999999999997,-6.33333333333333665E-002,0.32000000000000012,274.53433333333328
2013-11-30,19:00,334.791,270.54466666666673,80.017333333333326,-9.0573333333333341,-9999.0,-0.90799999999999992,-1.3146666666666667,-7.23333333333333606E-002,0.32000000000000012,274.53633333333335
2013-11-30,19:30,334.812,270.47633333333323,80.378666666666660,-9.3949999999999996,-9999.0,-0.98299999999999998,-1.3686666666666667,-7.53333333333333494E-002,0.32000000000000012,274.54133333333340
2013-11-30,20:00,334.833,270.40400000000000,80.688666666666677,-9.2729999999999997,-9999.0,-0.97766666666666657,-1.3430000000000000,-6.46666666666666917E-002,0.32000000000000012,274.54233333333343
2013-11-30,20:30,334.854,270.32433333333330,81.690333333333328,-9.3986666666666672,-9999.0,-1.0080000000000002,-1.3946666666666665,-4.93333333333333540E-002,0.32000000000000012,274.54500000000007
2013-11-30,21:00,334.874,270.26966666666681,82.540666666666681,-9.8450000000000006,-9999.0,-1.2246666666666666,-1.7223333333333337,-3.76666666666666886E-002,0.32000000000000012,274.54400000000004
2013-11-30,21:30,334.895,270.19466666666671,83.623999999999981,-9.4990000000000006,-9999.0,-1.1100000000000001,-1.6093333333333333,-4.53333333333333574E-002,0.32000000000000012,274.55300000000005
2013-11-30,22:00,334.916,270.13266666666664,84.422333333333341,-8.9070000000000036,-9999.0,-0.93033333333333323,-1.4423333333333330,-4.26666666666666930E-002,0.32000000000000012,274.54966666666672
2013-11-30,22:30,334.937,270.04666666666679,86.293333333333337,-8.0913333333333330,-9999.0,-0.84966666666666668,-1.1816666666666664,-4.36666666666666800E-002,0.32000000000000012,274.55100000000010
2013-11-30,23:00,334.958,270.02566666666672,87.914999999999978,-7.9763333333333311,-9999.0,-0.98799999999999999,-1.1050000000000002,-4.23333333333333547E-002,0.32000000000000012,274.55000000000013
2013-11-30,23:30,334.979,269.95533333333327,91.741000000000014,-7.4040000000000008,-9999.0,-0.77933333333333310,-1.3390000000000002,-4.30000000000000243E-002,0.32000000000000012,274.55566666666675
2013-12-01,00:00,335.000,269.92500000000007,95.249999999999986,-7.3856666666666664,-9999.0,-0.72433333333333338,-1.3496666666666670,-3.70000000000000190E-002,0.32000000000000012,274.55300000000011
